Augusta, ME

4:01 PM EDT on August 20, 2017 (GMT -0400)
Augusta State

Weather History for KAUG - November, 2012

Change the Weather History Date:

Thursday, November 22, 2012

  Actual Average Record
Temperature  
Mean Temperature 36 °F 36 °F  
Max Temperature 48 °F 43 °F 62 °F (1992)
Min Temperature 24 °F 29 °F 9 °F (1978)
Degree Days  
Heating Degree Days 29 29  
Month to date heating degree days 563  
Since 1 July heating degree days 1298  
Cooling Degree Days 0 0  
Month to date cooling degree days 0  
Year to date cooling degree days 388  
Moisture  
Dew Point 30 °F    
Average Humidity 94    
Maximum Humidity 100    
Minimum Humidity 66    
Precipitation  
Precipitation 0.00 in 0.14 in 2.18 in (2005)
Month to date precipitation 3.27  
Year to date precipitation 37.55  
Sea Level Pressure  
Sea Level Pressure 30.23 in    
Wind  
Wind Speed 2 mph (SSE)    
Max Wind Speed 6 mph    
Max Gust Speed -    
Visibility 2 miles    
Events Fog    
T = Trace of Precipitation, MM = Missing Value Source: NWS Daily Summary

Daily Weather History Graph

Daily Weather History Graph

Search for Another Location

Airport or City:

Trip Planner

Search our weather history database for the weather conditions in past years. The results will help you decide how hot, cold, wet, or windy it might be!

Date:

Astronomy

Nov. 22, 2012 Rise Set
Actual Time 6:44 AM EST 4:05 PM EST
Civil Twilight 6:12 AM EST 4:37 PM EST
Nautical Twilight 5:37 AM EST 5:13 PM EST
Astronomical Twilight 5:02 AM EST 5:48 PM EST
Moon 1:00 PM EST (11/22) 12:49 AM EST (11/22)
Length of Visible Light 10h 25m
Length of Day
9h 21m
Waxing Gibbous, 71% of the Moon is Illuminated
Nov 22
Waxing Gibbous
Nov 28
Full
Dec 6
Last Quarter
Dec 13
New
Dec 20
First Quarter

Hourly Weather History & Observations

Time (EST) Temp. Windchill Dew Point Humidity Pressure Visibility Wind Dir Wind Speed Gust Speed Precip Events Conditions
12:01 AM 28.4 °F 23.3 °F 26.6 °F 93% 30.26 in 0.5 mi North 4.6 mph - N/A Fog Light Freezing Fog
12:13 AM 28.4 °F 23.3 °F 28.4 °F 100% 30.26 in 1.5 mi North 4.6 mph - N/A   Mostly Cloudy
12:19 AM 28.4 °F 23.3 °F 28.4 °F 100% 30.26 in 0.8 mi North 4.6 mph - N/A   Mist
12:48 AM 26.6 °F 22.6 °F 26.6 °F 100% 30.26 in 0.2 mi North 3.5 mph - N/A Fog Light Freezing Fog
12:53 AM 27.0 °F 23.0 °F 26.1 °F 96% 30.28 in 0.5 mi NNW 3.5 mph - N/A Fog Light Freezing Fog
1:07 AM 26.6 °F - 26.6 °F 100% 30.26 in 0.2 mi Calm Calm - N/A Fog Light Freezing Fog
1:17 AM 26.6 °F - 26.6 °F 100% 30.26 in 1.0 mi Calm Calm - N/A   Mist
1:20 AM 26.6 °F - 26.6 °F 100% 30.26 in 2.0 mi Calm Calm - N/A   Scattered Clouds
1:33 AM 26.6 °F - 26.6 °F 100% 30.26 in 4.0 mi Calm Calm - N/A   Partly Cloudy
1:53 AM 26.1 °F - 24.1 °F 92% 30.28 in 4.0 mi Calm Calm - N/A   Partly Cloudy
1:58 AM 26.6 °F - 24.8 °F 93% 30.26 in 1.5 mi Calm Calm - N/A   Scattered Clouds
2:05 AM 26.6 °F - 24.8 °F 93% 30.26 in 1.2 mi Calm Calm - N/A   Mostly Cloudy
2:12 AM 26.6 °F - 26.6 °F 100% 30.26 in 1.2 mi Calm Calm - N/A   Mostly Cloudy
2:21 AM 26.6 °F - 26.6 °F 100% 30.26 in 0.5 mi Calm Calm - N/A Fog Light Freezing Fog
2:30 AM 26.6 °F - 24.8 °F 93% 30.26 in 0.2 mi Calm Calm - N/A Fog Light Freezing Fog
2:53 AM 26.1 °F 21.9 °F 25.0 °F 96% 30.27 in 0.2 mi NNE 3.5 mph - N/A Fog Light Freezing Fog
3:21 AM 26.6 °F - 24.8 °F 93% 30.25 in 0.5 mi Calm Calm - N/A Fog Light Freezing Fog
3:28 AM 26.6 °F - 24.8 °F 93% 30.25 in 0.2 mi Calm Calm - N/A Fog Light Freezing Fog
3:51 AM 26.6 °F - 24.8 °F 93% 30.24 in 0.5 mi Calm Calm - N/A Fog Light Freezing Fog
3:53 AM 26.1 °F - 24.1 °F 92% 30.26 in 0.5 mi Calm Calm - N/A Fog Light Freezing Fog
4:07 AM 26.6 °F - 24.8 °F 93% 30.24 in 0.2 mi Calm Calm - N/A Fog Light Freezing Fog
4:29 AM 24.8 °F - 24.8 °F 100% 30.24 in 0.5 mi Calm Calm - N/A Fog Light Freezing Fog
4:53 AM 25.0 °F 20.7 °F 23.0 °F 92% 30.27 in 0.8 mi North 3.5 mph - N/A   Mist
5:06 AM 24.8 °F 19.1 °F 23.0 °F 93% 30.25 in 0.2 mi NNW 4.6 mph - N/A Fog Light Freezing Fog
5:17 AM 24.8 °F - 24.8 °F 100% 30.25 in 0.2 mi Calm Calm - N/A Fog Light Freezing Fog
5:39 AM 24.8 °F - 23.0 °F 93% 30.25 in 0.5 mi Calm Calm - N/A Fog Light Freezing Fog
5:51 AM 26.6 °F - 24.8 °F 93% 30.26 in 1.5 mi Calm Calm - N/A   Overcast
5:53 AM 26.1 °F - 25.0 °F 96% 30.27 in 2.0 mi Calm Calm - N/A   Overcast
6:02 AM 26.6 °F - 24.8 °F 93% 30.26 in 3.0 mi Calm Calm - N/A   Overcast
6:34 AM 26.6 °F - 26.6 °F 100% 30.26 in 4.0 mi Calm Calm - N/A   Overcast
6:53 AM 27.0 °F - 25.0 °F 92% 30.28 in 3.0 mi Calm Calm - N/A   Overcast
7:02 AM 26.6 °F - 24.8 °F 93% 30.26 in 1.8 mi Calm Calm - N/A   Overcast
7:12 AM 26.6 °F - 26.6 °F 100% 30.26 in 0.5 mi Calm Calm - N/A Fog Light Freezing Fog
7:29 AM 28.4 °F 24.6 °F 26.6 °F 93% 30.26 in 1.8 mi SSE 3.5 mph - N/A   Overcast
7:33 AM 28.4 °F - 26.6 °F 93% 30.26 in 0.5 mi Calm Calm - N/A Fog Light Freezing Fog
7:41 AM 28.4 °F - 28.4 °F 100% 30.26 in 0.2 mi Calm Calm - N/A Fog Light Freezing Fog
7:53 AM 28.9 °F - 28.9 °F 100% 30.28 in 0.2 mi Calm Calm - N/A Fog Light Freezing Fog
8:53 AM 30.9 °F - 30.0 °F 96% 30.27 in 0.2 mi Calm Calm - N/A Fog Light Freezing Fog
9:53 AM 32.0 °F - 32.0 °F 100% 30.27 in 0.2 mi Calm Calm - N/A Fog Fog
10:53 AM 37.0 °F - 36.0 °F 96% 30.25 in 1.5 mi Calm Calm - N/A   Mostly Cloudy
10:57 AM 37.4 °F - 37.4 °F 100% 30.24 in 6.0 mi Calm Calm - N/A   Scattered Clouds
11:26 AM 37.4 °F 33.8 °F 35.6 °F 93% 30.23 in 2.0 mi ESE 4.6 mph - N/A   Partly Cloudy
11:37 AM 37.4 °F 33.8 °F 37.4 °F 100% 30.22 in 5.0 mi SE 4.6 mph - N/A   Partly Cloudy
11:53 AM 39.0 °F 36.8 °F 37.0 °F 93% 30.24 in 8.0 mi SE 3.5 mph - N/A   Clear
12:53 PM 46.0 °F 43.9 °F 37.9 °F 73% 30.22 in 10.0 mi SE 4.6 mph - N/A   Clear
1:53 PM 48.9 °F - 37.9 °F 66% 30.19 in 10.0 mi SSE 5.8 mph - N/A   Clear
2:53 PM 48.9 °F - 37.9 °F 66% 30.18 in 10.0 mi SSE 5.8 mph - N/A   Clear
3:53 PM 46.9 °F - 36.0 °F 66% 30.19 in 10.0 mi South 5.8 mph - N/A   Clear
4:53 PM 44.1 °F 40.8 °F 37.0 °F 76% 30.18 in 10.0 mi South 5.8 mph - N/A   Clear
5:53 PM 41.0 °F 37.1 °F 37.0 °F 86% 30.19 in 10.0 mi SSW 5.8 mph - N/A   Clear
6:53 PM 39.9 °F 36.7 °F 37.0 °F 89% 30.18 in 10.0 mi South 4.6 mph - N/A   Clear
7:53 PM 37.9 °F 34.4 °F 37.0 °F 97% 30.18 in 6.0 mi SSE 4.6 mph - N/A   Clear
8:08 PM 37.4 °F 33.8 °F 37.4 °F 100% 30.15 in 6.0 mi SSE 4.6 mph - N/A   Scattered Clouds
8:17 PM 37.4 °F 33.8 °F 37.4 °F 100% 30.16 in 6.0 mi SSE 4.6 mph - N/A   Mostly Cloudy
8:41 PM 37.4 °F - 37.4 °F 100% 30.15 in 1.8 mi Calm Calm - N/A   Overcast
8:53 PM 37.9 °F - 37.9 °F 100% 30.16 in 0.8 mi Calm Calm - N/A   Mist
9:25 PM 39.2 °F 35.9 °F 37.4 °F 93% 30.14 in 0.2 mi South 4.6 mph - N/A Fog Fog
9:53 PM 37.9 °F 34.4 °F 37.9 °F 100% 30.14 in 0.2 mi South 4.6 mph - N/A Fog Fog
10:09 PM 37.4 °F 34.9 °F 37.4 °F 100% 30.13 in 1.0 mi South 3.5 mph - N/A   Mist
10:22 PM 37.4 °F 33.8 °F 37.4 °F 100% 30.12 in 0.8 mi South 4.6 mph - N/A   Mist
10:32 PM 37.4 °F 32.8 °F 37.4 °F 100% 30.12 in 0.2 mi South 5.8 mph - N/A Fog Fog
10:53 PM 37.9 °F 33.5 °F 37.0 °F 97% 30.13 in 0.2 mi SSW 5.8 mph - N/A Fog Fog
11:53 PM 35.1 °F - 35.1 °F 100% 30.11 in 0.2 mi Calm Calm - N/A Fog Fog